星链-37853(STARLINK-37853)

导读

STARLINK-37853(NORAD编号69498)是美国太空探索技术公司(SpaceX)星链星座的V1.0版通信卫星,主要承担低轨互联网通信服务功能,可面向全球尤其是偏远地区提供高速低延迟网络接入,同时可支持航空、应急通信等行业应用。 该卫星运行于倾角43.0°的近地轨道,轨道高度约482-484公里,轨道周期94.27分钟,每日绕地约15.3圈,截至2026年6月仍处于在轨运行状态,是当前星链全球超1万颗在轨组网卫星的组成部分,支撑星链网络为全球超1000万用户提供通信服务。

Basic Information
目录编号:
69498
目录名称:
STARLINK-37853
国际标识:
2026-131W
轨道中心:
EARTH
卫星名称:
星链-37853
卫星全名:
星链-37853(STARLINK-37853)
卫星状态:
在轨 (已飞行86 天)
发射日期:
2026-06-11 UTC
国别 :
美国 (US)
星等 :
--
Orbit Information
数据来源 国际轨道数据
星历时间: 2026-09-05T08:21:33+0800
9小时前
查看轨道信息
半长轴: 6797.127km
偏心率: 0.0000645
轨道倾角: 97.286°
近地点辐角 306.307°
升交点赤经 271.986°
平近点角 53.812°
近地点: 418.551km
远地点: 419.429km
周期: 92.950分钟
每日圈数: 15.492257
Detailed Information
固有亮度:
5
最大亮度:
2.5
卫星平台:
Starlink V1.0
覆盖范围:
全球
运营商:
太空探索技术公司
运营商所在国:
美国
制造商(研发单位):
太空探索技术公司
制造商所在国:
美国
使用方式:
暂无
Satellite Introduction
Starlink 计划是 SpaceX 推出的全球卫星互联网项目,通过发射低轨道卫星,为全球尤其是偏远地区提供高速、低延迟的互联网服务。自 2019 年起,Starlink 已部署数千颗卫星,旨在缩小全球数字鸿沟,推动互联网普及。该项目还为军事、航空等行业提供通信支持,带来广泛经济效益。
2D Orbit Map
3D Orbit Map
Orbit Altitude Analysis Chart
Orbit Inclination Analysis Chart
Orbit Comprehensive Analysis Chart
View Comprehensive Chart
Conjunction Data List
Event ID Objects TCA Miss Dist (km) Collision Risk Probability Collision Risk Index (CRI) Action
CDM_260907-030904-388006-949821
UWE-4 (43880)
2026-09-07T
03:09:19+0000
2.975 km
极远距离
1.134279E-6 低风险 0.36